Laurel — ZCOV6 — position and weather

sailwx.info

Track history (hours):
 
Tides and Currents Weather Stations Pressure Air Temp Water Temp Dewpoint Dewpoint Depression Visibility Wind Speed Wind Dir Waves Ship Positions

Laurel

Last reported at 2014-Jul-28 05:06 UTC. Time now 2014-Jul-29 20:58 UTC.
Position N 43°44' E 007°26'.

Length 73 m; draft 3.7 m.

Type: Pleasure craft. MMSI: 319914000.

Date/timePositionNaut miles runAvg speedWind from/ knotsBaromVisibWave heightAir tempDewpointWater temp
2014-Jul-28 05:06N 43°44' E 007°26'5 9.3
2014-Jul-28 04:32N 43°41' E 007°21'3 0.2
2014-Jul-27 12:22N 43°42' E 007°17'0 0.0
2014-Jul-27 11:28N 43°42' E 007°17'0 0.0
2014-Jul-27 10:28N 43°42' E 007°17'0 0.0
2014-Jul-27 09:28N 43°42' E 007°17'0 0.0
2014-Jul-27 08:28N 43°42' E 007°17'0 0.0
2014-Jul-27 07:16N 43°42' E 007°17'0 0.0
2014-Jul-27 06:28N 43°42' E 007°17'0 0.0
2014-Jul-27 05:22N 43°42' E 007°17'0 0.0
2014-Jul-27 02:28N 43°42' E 007°17'0 0.0
2014-Jul-26 21:22N 43°42' E 007°17'0 0.0
2014-Jul-26 20:16N 43°42' E 007°17'0 0.0
2014-Jul-26 19:04N 43°42' E 007°17'0 0.0
2014-Jul-26 18:22N 43°42' E 007°17'0 0.0
2014-Jul-26 17:28N 43°42' E 007°17'0 0.0
2014-Jul-26 13:28N 43°42' E 007°17'0 0.0
2014-Jul-26 12:10N 43°42' E 007°17'0 0.0
2014-Jul-26 11:22N 43°42' E 007°17'0 0.0
2014-Jul-26 10:28N 43°42' E 007°17'0 0.0
2014-Jul-26 09:28N 43°42' E 007°17'0 0.0
2014-Jul-26 08:28N 43°42' E 007°17'0 0.0
2014-Jul-26 07:15N 43°42' E 007°17'1 1.8
2014-Jul-26 06:34N 43°40' E 007°18'3 2.1
2014-Jul-26 05:12N 43°43' E 007°21'0 0.0
2014-Jul-26 04:18N 43°43' E 007°21'0 0.0
2014-Jul-26 03:12N 43°43' E 007°21'0 0.0
2014-Jul-26 02:24N 43°43' E 007°21'0 0.0
2014-Jul-26 01:24N 43°43' E 007°21'0 0.0
2014-Jul-26 00:30N 43°43' E 007°21'0 0.0
2014-Jul-25 23:18N 43°43' E 007°21'0 0.0
2014-Jul-25 22:29N 43°43' E 007°21'0 0.0
2014-Jul-25 21:18N 43°43' E 007°21'0 0.0
2014-Jul-25 16:06N 43°43' E 007°21'0 0.0
2014-Jul-25 15:24N 43°43' E 007°21'0 0.0
2014-Jul-25 14:23N 43°43' E 007°21'0 0.0
2014-Jul-25 13:05N 43°43' E 007°21'0 0.0
2014-Jul-25 12:05N 43°43' E 007°21'0 0.1
2014-Jul-25 10:33N 43°42' E 007°21'5 0.1
2014-Jul-23 20:06N 43°44' E 007°26'712.5
2014-Jul-23 19:33N 43°39' E 007°20'9 9.1
2014-Jul-23 18:31N 43°35' E 007°08'0 0.0
2014-Jul-23 17:16N 43°35' E 007°08'0 0.0
2014-Jul-23 16:28N 43°35' E 007°08'0 0.0
2014-Jul-23 15:31N 43°35' E 007°08'0 0.0
2014-Jul-23 14:28N 43°35' E 007°08'0 0.0
2014-Jul-23 13:28N 43°35' E 007°08'0 0.0
2014-Jul-23 12:28N 43°35' E 007°08'0 0.0
2014-Jul-23 11:28N 43°35' E 007°08'0 0.0
2014-Jul-23 10:28N 43°35' E 007°08'2 2.1
2014-Jul-23 09:33N 43°33' E 007°07'0 0.1
2014-Jul-23 08:31N 43°34' E 007°07'0 0.0
2014-Jul-23 07:31N 43°34' E 007°07'0 0.0
2014-Jul-23 06:31N 43°34' E 007°07'0 0.0
2014-Jul-23 05:31N 43°34' E 007°07'0 0.0
2014-Jul-23 04:31N 43°34' E 007°07'0 0.0
2014-Jul-23 03:31N 43°34' E 007°07'0 0.0
2014-Jul-23 02:31N 43°34' E 007°07'0 0.0
2014-Jul-23 01:31N 43°34' E 007°07'0 0.0
2014-Jul-23 00:31N 43°34' E 007°07'0 0.0
2014-Jul-22 23:31N 43°34' E 007°07'0 0.0
2014-Jul-22 22:31N 43°34' E 007°07'0 0.0
2014-Jul-22 21:25N 43°34' E 007°07'0 0.0
2014-Jul-22 20:31N 43°34' E 007°07'0 0.0
2014-Jul-22 19:25N 43°34' E 007°07'0 0.0
2014-Jul-22 18:31N 43°34' E 007°07'0 0.0
2014-Jul-22 17:31N 43°34' E 007°07'0 0.0
2014-Jul-22 16:31N 43°34' E 007°07'0 0.0
2014-Jul-22 15:31N 43°34' E 007°07'0 0.0
2014-Jul-22 14:31N 43°34' E 007°07'0 0.0
2014-Jul-22 13:31N 43°34' E 007°07'0 0.0
2014-Jul-22 12:31N 43°34' E 007°07'0 0.0
2014-Jul-22 11:31N 43°34' E 007°07'0 0.0
2014-Jul-22 10:25N 43°34' E 007°07'0 0.0
2014-Jul-22 09:31N 43°34' E 007°07'0 0.0
2014-Jul-22 08:31N 43°34' E 007°07'4 4.1
2014-Jul-22 07:33N 43°32' E 007°01'0 0.0
2014-Jul-22 05:25N 43°32' E 007°01'0 0.0
2014-Jul-21 22:22N 43°32' E 007°01'0 0.0
2014-Jul-21 21:31N 43°32' E 007°01'0 0.0
2014-Jul-21 20:31N 43°32' E 007°01'0 0.0
2014-Jul-21 20:13N 43°32' E 007°01'0 0.0
2014-Jul-21 19:31N 43°32' E 007°01'0 0.0
2014-Jul-21 18:19N 43°32' E 007°01'0 0.0
2014-Jul-21 17:31N 43°32' E 007°01'0 0.0
2014-Jul-21 15:31N 43°32' E 007°01'0 0.0
2014-Jul-21 14:31N 43°32' E 007°01'0 0.0
2014-Jul-21 13:31N 43°32' E 007°01'0 0.0
2014-Jul-21 12:31N 43°32' E 007°01'0 0.0
2014-Jul-21 11:07N 43°32' E 007°01'0 0.0
2014-Jul-21 10:19N 43°32' E 007°01'0 0.0
2014-Jul-21 09:19N 43°32' E 007°01'0 0.0
2014-Jul-21 04:07N 43°32' E 007°02'0 0.0
2014-Jul-21 02:13N 43°32' E 007°01'0 0.0
2014-Jul-20 22:31N 43°32' E 007°01'0 0.0
2014-Jul-20 21:25N 43°32' E 007°01'0 0.0
2014-Jul-20 20:25N 43°32' E 007°01'0 0.0
2014-Jul-20 19:31N 43°32' E 007°01'0 0.0
2014-Jul-20 18:25N 43°32' E 007°01'0 0.0
2014-Jul-20 17:13N 43°32' E 007°01'0 0.0
2014-Jul-20 15:31N 43°32' E 007°01'0 0.0
2014-Jul-20 14:19N 43°32' E 007°01'0 0.0
2014-Jul-20 12:07N 43°32' E 007°01'0 0.0
2014-Jul-20 09:28N 43°32' E 007°01'1111.4
2014-Jul-20 08:33N 43°24' E 006°52'1312.8
2014-Jul-20 07:33N 43°17' E 006°38'1 0.4
2014-Jul-20 06:22N 43°16' E 006°38'0 0.0
2014-Jul-20 05:28N 43°16' E 006°38'0 0.0
2014-Jul-20 04:31N 43°16' E 006°38'0 0.0
2014-Jul-20 03:31N 43°16' E 006°38'0 0.0
2014-Jul-20 02:25N 43°16' E 006°38'0 0.0
2014-Jul-20 01:28N 43°16' E 006°38'0 0.0
2014-Jul-20 00:25N 43°16' E 006°38'0 0.0
2014-Jul-19 23:25N 43°16' E 006°38'0 0.0
2014-Jul-19 22:25N 43°16' E 006°38'0 0.0
2014-Jul-19 21:25N 43°16' E 006°38'0 0.0
2014-Jul-19 20:31N 43°16' E 006°38'0 0.0
2014-Jul-19 19:28N 43°16' E 006°38'0 0.0
2014-Jul-19 18:25N 43°16' E 006°38'0 0.0
2014-Jul-19 17:19N 43°16' E 006°38'0 0.0
2014-Jul-19 16:25N 43°16' E 006°38'4 4.8
2014-Jul-19 15:33N 43°15' E 006°43'3 2.3
2014-Jul-19 14:22N 43°14' E 006°40'0 0.0
2014-Jul-19 13:28N 43°14' E 006°40'0 0.0
2014-Jul-19 12:25N 43°14' E 006°40'0 0.0
2014-Jul-19 11:31N 43°14' E 006°40'0 0.0
2014-Jul-19 10:28N 43°14' E 006°40'0 0.0
2014-Jul-19 09:25N 43°14' E 006°40'0 0.0
2014-Jul-19 08:31N 43°14' E 006°40'0 0.0
2014-Jul-19 07:13N 43°14' E 006°40'0 0.0
2014-Jul-19 06:28N 43°14' E 006°40'0 0.0
2014-Jul-19 05:33N 43°14' E 006°40'1110.7
2014-Jul-19 04:32N 43°06' E 006°51'1111.5
2014-Jul-19 03:33N 42°58' E 007°01'1211.6
2014-Jul-19 02:33N 42°49' E 007°12'1211.9
2014-Jul-19 01:33N 42°40' E 007°23'1212.3
2014-Jul-19 00:33N 42°31' E 007°34'1312.6
2014-Jul-18 23:33N 42°22' E 007°46'1312.9
2014-Jul-18 22:33N 42°13' E 007°58'1313.0
2014-Jul-18 21:33N 42°03' E 008°10'1313.3
2014-Jul-18 20:32N 41°53' E 008°22'1313.2
2014-Jul-18 19:33N 41°43' E 008°33'1312.8
2014-Jul-18 18:32N 41°34' E 008°45'8 0.9
2014-Jul-18 09:25N 41°30' E 008°55'  
Track history (hours):
 
Tides and Currents Weather Stations Pressure Air Temp Water Temp Dewpoint Dewpoint Depression Visibility Wind Speed Wind Dir Waves Ship Positions

Laurel

Last reported at 2014-Jul-28 05:06 UTC. Time now 2014-Jul-29 20:58 UTC.
Position N 43°44' E 007°26'.

Length 73 m; draft 3.7 m.

Type: Pleasure craft. MMSI: 319914000.

Date/timePositionNaut miles runAvg speedWind from/ knotsBaromVisibWave heightAir tempDewpointWater temp
2014-Jul-28 05:06N 43°44' E 007°26'5 9.3
2014-Jul-28 04:32N 43°41' E 007°21'3 0.2
2014-Jul-27 12:22N 43°42' E 007°17'0 0.0
2014-Jul-27 11:28N 43°42' E 007°17'0 0.0
2014-Jul-27 10:28N 43°42' E 007°17'0 0.0
2014-Jul-27 09:28N 43°42' E 007°17'0 0.0
2014-Jul-27 08:28N 43°42' E 007°17'0 0.0
2014-Jul-27 07:16N 43°42' E 007°17'0 0.0
2014-Jul-27 06:28N 43°42' E 007°17'0 0.0
2014-Jul-27 05:22N 43°42' E 007°17'0 0.0
2014-Jul-27 02:28N 43°42' E 007°17'0 0.0
2014-Jul-26 21:22N 43°42' E 007°17'0 0.0
2014-Jul-26 20:16N 43°42' E 007°17'0 0.0
2014-Jul-26 19:04N 43°42' E 007°17'0 0.0
2014-Jul-26 18:22N 43°42' E 007°17'0 0.0
2014-Jul-26 17:28N 43°42' E 007°17'0 0.0
2014-Jul-26 13:28N 43°42' E 007°17'0 0.0
2014-Jul-26 12:10N 43°42' E 007°17'0 0.0
2014-Jul-26 11:22N 43°42' E 007°17'0 0.0
2014-Jul-26 10:28N 43°42' E 007°17'0 0.0
2014-Jul-26 09:28N 43°42' E 007°17'0 0.0
2014-Jul-26 08:28N 43°42' E 007°17'0 0.0
2014-Jul-26 07:15N 43°42' E 007°17'1 1.8
2014-Jul-26 06:34N 43°40' E 007°18'3 2.1
2014-Jul-26 05:12N 43°43' E 007°21'0 0.0
2014-Jul-26 04:18N 43°43' E 007°21'0 0.0
2014-Jul-26 03:12N 43°43' E 007°21'0 0.0
2014-Jul-26 02:24N 43°43' E 007°21'0 0.0
2014-Jul-26 01:24N 43°43' E 007°21'0 0.0
2014-Jul-26 00:30N 43°43' E 007°21'0 0.0
2014-Jul-25 23:18N 43°43' E 007°21'0 0.0
2014-Jul-25 22:29N 43°43' E 007°21'0 0.0
2014-Jul-25 21:18N 43°43' E 007°21'0 0.0
2014-Jul-25 16:06N 43°43' E 007°21'0 0.0
2014-Jul-25 15:24N 43°43' E 007°21'0 0.0
2014-Jul-25 14:23N 43°43' E 007°21'0 0.0
2014-Jul-25 13:05N 43°43' E 007°21'0 0.0
2014-Jul-25 12:05N 43°43' E 007°21'0 0.1
2014-Jul-25 10:33N 43°42' E 007°21'5 0.1
2014-Jul-23 20:06N 43°44' E 007°26'712.5
2014-Jul-23 19:33N 43°39' E 007°20'9 9.1
2014-Jul-23 18:31N 43°35' E 007°08'0 0.0
2014-Jul-23 17:16N 43°35' E 007°08'0 0.0
2014-Jul-23 16:28N 43°35' E 007°08'0 0.0
2014-Jul-23 15:31N 43°35' E 007°08'0 0.0
2014-Jul-23 14:28N 43°35' E 007°08'0 0.0
2014-Jul-23 13:28N 43°35' E 007°08'0 0.0
2014-Jul-23 12:28N 43°35' E 007°08'0 0.0
2014-Jul-23 11:28N 43°35' E 007°08'0 0.0
2014-Jul-23 10:28N 43°35' E 007°08'2 2.1
2014-Jul-23 09:33N 43°33' E 007°07'0 0.1
2014-Jul-23 08:31N 43°34' E 007°07'0 0.0
2014-Jul-23 07:31N 43°34' E 007°07'0 0.0
2014-Jul-23 06:31N 43°34' E 007°07'0 0.0
2014-Jul-23 05:31N 43°34' E 007°07'0 0.0
2014-Jul-23 04:31N 43°34' E 007°07'0 0.0
2014-Jul-23 03:31N 43°34' E 007°07'0 0.0
2014-Jul-23 02:31N 43°34' E 007°07'0 0.0
2014-Jul-23 01:31N 43°34' E 007°07'0 0.0
2014-Jul-23 00:31N 43°34' E 007°07'0 0.0
2014-Jul-22 23:31N 43°34' E 007°07'0 0.0
2014-Jul-22 22:31N 43°34' E 007°07'0 0.0
2014-Jul-22 21:25N 43°34' E 007°07'0 0.0
2014-Jul-22 20:31N 43°34' E 007°07'0 0.0
2014-Jul-22 19:25N 43°34' E 007°07'0 0.0
2014-Jul-22 18:31N 43°34' E 007°07'0 0.0
2014-Jul-22 17:31N 43°34' E 007°07'0 0.0
2014-Jul-22 16:31N 43°34' E 007°07'0 0.0
2014-Jul-22 15:31N 43°34' E 007°07'0 0.0
2014-Jul-22 14:31N 43°34' E 007°07'0 0.0
2014-Jul-22 13:31N 43°34' E 007°07'0 0.0
2014-Jul-22 12:31N 43°34' E 007°07'0 0.0
2014-Jul-22 11:31N 43°34' E 007°07'0 0.0
2014-Jul-22 10:25N 43°34' E 007°07'0 0.0
2014-Jul-22 09:31N 43°34' E 007°07'0 0.0
2014-Jul-22 08:31N 43°34' E 007°07'4 4.1
2014-Jul-22 07:33N 43°32' E 007°01'0 0.0
2014-Jul-22 05:25N 43°32' E 007°01'0 0.0
2014-Jul-21 22:22N 43°32' E 007°01'0 0.0
2014-Jul-21 21:31N 43°32' E 007°01'0 0.0
2014-Jul-21 20:31N 43°32' E 007°01'0 0.0
2014-Jul-21 20:13N 43°32' E 007°01'0 0.0
2014-Jul-21 19:31N 43°32' E 007°01'0 0.0
2014-Jul-21 18:19N 43°32' E 007°01'0 0.0
2014-Jul-21 17:31N 43°32' E 007°01'0 0.0
2014-Jul-21 15:31N 43°32' E 007°01'0 0.0
2014-Jul-21 14:31N 43°32' E 007°01'0 0.0
2014-Jul-21 13:31N 43°32' E 007°01'0 0.0
2014-Jul-21 12:31N 43°32' E 007°01'0 0.0
2014-Jul-21 11:07N 43°32' E 007°01'0 0.0
2014-Jul-21 10:19N 43°32' E 007°01'0 0.0
2014-Jul-21 09:19N 43°32' E 007°01'0 0.0
2014-Jul-21 04:07N 43°32' E 007°02'0 0.0
2014-Jul-21 02:13N 43°32' E 007°01'0 0.0
2014-Jul-20 22:31N 43°32' E 007°01'0 0.0
2014-Jul-20 21:25N 43°32' E 007°01'0 0.0
2014-Jul-20 20:25N 43°32' E 007°01'0 0.0
2014-Jul-20 19:31N 43°32' E 007°01'0 0.0
2014-Jul-20 18:25N 43°32' E 007°01'0 0.0
2014-Jul-20 17:13N 43°32' E 007°01'0 0.0
2014-Jul-20 15:31N 43°32' E 007°01'0 0.0
2014-Jul-20 14:19N 43°32' E 007°01'0 0.0
2014-Jul-20 12:07N 43°32' E 007°01'0 0.0
2014-Jul-20 09:28N 43°32' E 007°01'1111.4
2014-Jul-20 08:33N 43°24' E 006°52'1312.8
2014-Jul-20 07:33N 43°17' E 006°38'1 0.4
2014-Jul-20 06:22N 43°16' E 006°38'0 0.0
2014-Jul-20 05:28N 43°16' E 006°38'0 0.0
2014-Jul-20 04:31N 43°16' E 006°38'0 0.0
2014-Jul-20 03:31N 43°16' E 006°38'0 0.0
2014-Jul-20 02:25N 43°16' E 006°38'0 0.0
2014-Jul-20 01:28N 43°16' E 006°38'0 0.0
2014-Jul-20 00:25N 43°16' E 006°38'0 0.0
2014-Jul-19 23:25N 43°16' E 006°38'0 0.0
2014-Jul-19 22:25N 43°16' E 006°38'0 0.0
2014-Jul-19 21:25N 43°16' E 006°38'0 0.0
2014-Jul-19 20:31N 43°16' E 006°38'0 0.0
2014-Jul-19 19:28N 43°16' E 006°38'0 0.0
2014-Jul-19 18:25N 43°16' E 006°38'0 0.0
2014-Jul-19 17:19N 43°16' E 006°38'0 0.0
2014-Jul-19 16:25N 43°16' E 006°38'4 4.8
2014-Jul-19 15:33N 43°15' E 006°43'3 2.3
2014-Jul-19 14:22N 43°14' E 006°40'0 0.0
2014-Jul-19 13:28N 43°14' E 006°40'0 0.0
2014-Jul-19 12:25N 43°14' E 006°40'0 0.0
2014-Jul-19 11:31N 43°14' E 006°40'0 0.0
2014-Jul-19 10:28N 43°14' E 006°40'0 0.0
2014-Jul-19 09:25N 43°14' E 006°40'0 0.0
2014-Jul-19 08:31N 43°14' E 006°40'0 0.0
2014-Jul-19 07:13N 43°14' E 006°40'0 0.0
2014-Jul-19 06:28N 43°14' E 006°40'0 0.0
2014-Jul-19 05:33N 43°14' E 006°40'1110.7
2014-Jul-19 04:32N 43°06' E 006°51'1111.5
2014-Jul-19 03:33N 42°58' E 007°01'1211.6
2014-Jul-19 02:33N 42°49' E 007°12'1211.9
2014-Jul-19 01:33N 42°40' E 007°23'1212.3
2014-Jul-19 00:33N 42°31' E 007°34'1312.6
2014-Jul-18 23:33N 42°22' E 007°46'1312.9
2014-Jul-18 22:33N 42°13' E 007°58'1313.0
2014-Jul-18 21:33N 42°03' E 008°10'1313.3
2014-Jul-18 20:32N 41°53' E 008°22'1313.2
2014-Jul-18 19:33N 41°43' E 008°33'1312.8
2014-Jul-18 18:32N 41°34' E 008°45'8 0.9
2014-Jul-18 09:25N 41°30' E 008°55'  

Dump ship's entire track history